GFSFLT2_sfc_dewp_132.txt.gz
Dewpoint
17 16 16 16 18 17 15 28 21 32 42 43 50 53 57 58 58 57 58 59 56 58 59 63 62 63 65 66 66 67 68 68
18 17 20 14 19 23 29 24 29 40 43 41 44 52 55 55 56 56 57 60 60 62 62 60 62 63 65 67 67 68 68 68
22 22 21 22 24 29 29 31 30 31 36 45 47 47 52 56 58 58 59 60 62 63 63 63 62 63 65 67 67 68 68 69
22 24 23 24 22 26 25 24 32 33 33 45 46 51 51 54 57 58 62 62 62 64 65 65 66 64 66 67 67 68 68 69
20 18 15 17 25 37 31 32 32 30 34 44 52 52 53 55 58 58 59 60 62 63 63 64 66 67 69 69 69 68 68 69
19 18 17 14 16 19 30 28 29 33 38 42 48 53 58 59 60 60 60 62 62 61 63 64 66 68 68 70 70 70 70 69
20 19 19 21 20 22 17 21 29 30 35 42 48 50 57 60 61 61 60 61 62 62 62 64 63 65 68 69 69 68 68 67
22 24 26 25 31 29 32 33 33 33 40 50 51 51 57 59 61 61 61 61 62 63 63 63 64 65 66 68 67 68 67 67
28 30 27 23 31 32 33 34 34 32 34 53 52 51 56 58 60 60 60 60 60 61 62 63 65 65 66 66 67 68 67 68
27 26 24 28 35 34 33 38 41 40 49 53 51 54 56 57 58 58 59 57 58 59 60 62 63 65 67 66 67 66 66 65
21 24 26 33 38 36 32 34 47 48 52 57 58 55 53 58 60 60 60 59 60 61 60 61 62 65 65 66 65 65 65 65
30 25 25 30 40 41 40 34 48 50 53 56 56 46 48 58 58 60 60 60 59 59 60 60 61 63 63 64 65 65 65 65
28 25 29 38 43 44 34 33 47 51 52 55 52 51 54 58 58 59 58 58 59 58 58 58 60 62 62 63 63 65 66 68
33 32 32 44 45 40 44 49 50 52 53 54 55 58 58 58 58 57 57 57 57 57 58 58 60 62 60 62 64 64 64 64
36 37 45 49 44 50 51 52 51 50 52 54 58 58 59 58 57 57 55 56 57 57 57 58 59 61 60 61 63 63 63 62
38 43 44 53 52 53 53 54 55 53 54 54 55 58 58 57 57 56 55 53 53 56 56 56 58 59 60 61 62 63 62 62
41 49 52 52 55 56 56 55 57 58 58 57 54 53 58 58 57 55 53 53 54 54 53 55 58 58 59 60 61 59 59 59
38 45 48 51 53 55 53 52 53 56 58 59 56 57 58 58 56 55 54 52 52 53 54 54 57 58 59 60 60 59 58 59
45 49 49 54 55 56 54 53 55 57 58 59 58 58 57 55 53 52 52 52 51 53 56 56 56 54 57 57 56 55 56 56

GFSFLT2_sfc_dewp_138.txt.gz
Dewpoint
21 19 18 18 16 18 19 21 20 25 41 43 47 52 55 57 57 57 57 57 59 61 62 64 64 64 65 66 67 67 68 68
20 17 21 18 23 20 22 15 19 30 41 39 46 48 50 54 57 58 59 59 59 60 62 63 65 66 67 67 66 67 67 68
20 18 16 19 23 27 28 29 27 31 37 44 45 47 49 55 57 59 59 60 60 61 62 64 66 65 64 65 66 66 67 68
21 24 22 21 21 25 19 20 31 30 29 41 46 47 51 55 57 60 60 60 61 62 63 64 65 66 66 65 65 68 68 68
19 15 17 15 22 29 28 31 32 29 29 44 49 51 52 55 57 58 61 61 62 62 63 63 64 65 65 66 67 67 68 68
20 18 17 16 23 26 28 28 29 31 32 42 49 51 53 57 58 57 59 59 61 61 62 63 65 66 66 66 67 69 68 68
22 20 17 20 24 24 22 22 20 21 34 41 45 52 56 58 60 59 59 61 61 61 62 62 63 64 67 68 69 69 69 69
19 21 24 26 30 29 26 28 35 35 36 42 47 50 55 58 59 59 59 60 61 61 62 62 63 64 65 66 68 70 70 69
21 29 26 25 26 32 34 35 34 31 32 47 48 50 50 54 58 59 60 59 59 60 61 61 62 63 63 65 66 67 68 70
27 27 21 25 32 34 34 38 41 37 39 44 48 50 51 56 57 58 59 58 58 58 59 60 61 63 64 65 66 66 67 67
23 22 24 31 36 34 33 33 45 42 42 50 55 55 53 57 58 57 59 57 58 59 60 60 62 62 62 63 63 64 64 65
25 19 19 25 33 38 37 32 42 46 45 53 55 47 47 54 58 59 58 58 58 59 59 59 61 62 62 62 62 62 62 62
29 23 25 29 39 41 31 30 39 48 48 54 52 50 53 57 58 58 59 59 59 59 59 58 59 61 62 62 62 63 62 61
29 27 23 41 44 37 39 44 47 49 50 51 54 56 57 57 57 58 57 58 58 58 59 59 60 62 61 60 62 62 62 61
30 30 37 45 43 46 46 47 50 50 52 54 56 57 58 57 57 56 56 57 57 58 58 58 59 61 61 61 62 61 60 59
39 43 46 48 50 52 52 51 52 51 54 56 55 58 57 57 56 56 55 55 55 57 57 58 59 61 62 61 61 60 59 58
44 49 51 51 53 53 54 54 53 54 54 57 57 57 57 56 56 55 54 54 55 56 57 58 59 60 61 61 61 59 59 59
39 46 44 46 52 55 53 54 55 55 55 56 57 56 56 55 54 54 52 53 55 56 57 59 59 59 60 61 61 60 59 58
41 50 50 53 55 55 52 53 57 57 55 55 56 57 55 54 55 53 52 54 56 56 56 58 58 59 59 61 61 59 59 58

GFSFLT2_sfc_dewp_141.txt.gz
Dewpoint
21 20 22 21 26 21 21 23 21 25 34 43 48 52 56 57 56 56 57 57 58 59 61 64 65 65 67 68 69 69 69 70
19 20 24 21 23 18 22 23 20 25 39 35 48 47 51 55 57 58 59 59 59 60 60 63 65 66 67 67 68 69 69 69
21 20 20 22 22 28 26 26 17 18 25 45 48 49 48 53 57 59 60 60 61 62 63 64 66 66 67 67 68 69 69 70
20 23 22 21 23 26 19 30 33 31 25 42 48 47 50 55 57 61 60 61 62 63 64 64 66 66 65 67 67 69 70 71
18 19 20 22 26 26 25 28 34 22 22 43 48 50 53 53 57 60 62 62 62 64 64 65 65 66 66 66 67 67 70 70
20 23 21 23 22 30 26 25 27 25 24 42 47 49 51 54 58 58 61 62 63 63 65 66 66 67 68 68 69 69 69 69
24 21 17 22 23 28 25 27 28 27 34 35 48 50 51 55 59 59 60 61 63 64 65 66 67 67 69 69 69 69 69 69
23 19 20 21 24 25 25 26 29 29 32 41 48 54 55 57 59 59 60 61 63 64 64 63 64 66 68 69 70 71 70 69
24 26 25 22 25 29 30 31 29 31 32 47 48 51 52 55 59 60 61 61 62 63 62 63 63 63 64 66 68 68 70 71
29 30 21 25 31 33 34 35 36 35 37 44 46 51 53 53 54 57 60 62 62 62 62 62 63 64 65 66 67 67 68 68
30 26 27 30 35 35 34 33 40 39 40 45 54 55 52 56 57 58 60 62 62 62 62 61 62 62 63 65 65 64 64 64
30 26 25 28 37 38 36 28 37 43 42 48 53 41 43 55 58 60 61 61 61 60 60 60 61 62 62 62 63 63 62 62
29 26 26 31 37 39 30 26 37 44 47 54 52 50 57 59 60 60 61 61 61 60 60 59 60 62 62 63 62 64 63 62
31 32 27 35 41 36 40 44 45 49 52 55 56 57 58 58 58 58 59 59 59 59 60 60 60 63 63 62 64 63 63 61
37 32 43 47 44 48 46 50 50 52 53 54 56 56 57 58 58 58 58 58 58 59 59 60 61 63 63 63 64 64 63 59
39 45 43 46 51 49 51 52 54 53 54 55 57 58 57 58 58 58 58 57 57 58 59 60 61 63 64 64 64 64 61 59
44 48 50 49 51 53 54 53 53 55 56 56 56 56 57 57 57 56 55 55 56 58 59 60 61 62 63 63 63 63 61 60
38 52 51 51 53 55 54 53 54 55 56 57 57 57 57 57 56 55 55 56 57 58 59 59 61 62 63 63 63 62 59 59
46 51 54 54 55 55 55 54 55 55 57 58 58 57 57 56 56 53 54 55 56 57 58 59 60 61 62 63 63 63 60 59

GFSFLT2_sfc_dewp_147.txt.gz
Dewpoint
16 17 18 19 11 12 17 29 28 37 35 32 34 36 40 47 51 53 52 51 54 56 59 61 62 63 65 68 70 71 70 72
14 16 17 18 20 9 16 28 27 34 33 27 31 33 41 46 49 51 54 54 55 57 58 61 62 63 65 66 69 70 69 70
18 18 18 18 20 19 18 21 17 17 20 28 40 39 42 45 50 51 54 55 56 58 58 61 63 62 65 66 70 69 70 72
17 18 18 18 17 19 19 26 21 21 20 26 32 37 40 47 50 52 55 58 58 59 60 60 62 63 64 67 66 68 70 74
19 19 18 18 19 19 18 18 26 24 20 30 31 32 42 47 51 54 56 59 61 62 63 62 63 65 64 65 67 67 70 70
17 23 21 21 18 20 18 19 21 19 30 32 35 38 42 46 51 54 57 60 61 63 66 66 67 68 68 68 68 69 69 71
22 22 27 23 17 18 20 23 22 27 24 26 34 38 43 47 53 55 58 59 61 64 67 69 69 69 70 69 70 70 70 70
26 23 24 24 18 19 21 22 23 24 31 30 33 35 36 47 53 54 56 58 61 65 67 68 69 70 70 70 71 71 71 70
26 25 24 23 23 22 22 23 23 24 27 29 34 38 39 45 53 55 56 58 61 63 64 66 67 68 69 70 71 71 72 72
27 31 30 24 23 23 23 24 23 25 27 31 38 39 44 46 50 55 57 59 62 63 65 67 66 67 67 68 68 69 69 69
30 30 36 27 28 27 26 25 24 25 30 30 44 47 50 50 51 55 55 59 63 63 65 66 66 67 66 66 67 67 66 67
33 31 32 36 29 29 26 25 28 30 33 36 44 37 39 50 50 52 56 60 61 61 63 64 65 65 65 65 65 65 66 65
33 33 35 35 34 30 27 31 31 33 36 38 42 50 54 54 54 55 57 59 60 61 61 62 64 64 64 64 65 65 65 65
36 35 32 35 35 30 41 38 34 33 38 40 46 56 55 54 56 55 58 60 59 60 62 62 63 63 63 65 65 65 65 64
33 34 48 42 38 35 38 41 40 41 43 43 47 52 52 54 55 56 57 58 58 58 61 61 62 64 64 66 66 64 64 63
41 38 39 40 40 37 38 40 44 43 45 43 47 50 51 52 54 56 58 59 58 59 60 61 62 64 66 65 65 64 63 62
40 42 44 44 41 44 41 45 46 47 48 47 47 50 51 55 58 58 58 58 58 58 59 60 62 65 66 64 65 62 63 60
35 44 49 49 47 46 49 49 51 52 52 52 50 53 56 57 59 59 59 59 60 60 60 61 63 65 65 64 64 61 60 58
44 45 48 52 50 50 51 51 52 52 53 53 54 56 57 58 59 59 60 61 61 61 62 63 64 63 63 66 64 62 61 60